Location: Banska Bystrica
(0.0000°N, 19.1500°E)
Time: 11:59:09
(UTC+02:00)

Cosmos 372 Rocket - Pass Details

Date: 19 February 2019
Orbit: 738 x 768 km, 74.1° (Epoch: 22 October)

Event Time Altitude Azimuth Distance (km) Brightness Sun altitude
Rises 19:25:25 0° 344° (NNW) 3,220 7.3 -21.6°
Reaches altitude 10° 19:27:47 10° 342° (NNW) 2,296 6.5 -22.2°
Maximum altitude 19:32:59 72° 258° (WSW) 802 4.2 -23.5°
Drops below altitude 10° 19:38:11 10° 174° (S) 2,295 6.5 -24.7°
Sets 19:40:33 0° 172° (S) 3,219 7.3 -25.3°
